When you browse on this site, cookies collect data to enhance your experience and personalize the content and advertising you see.
Visit our Privacy Policy to learn more. By continuing to use the site, you agree to this use of cookies and data.
  • In Sweden
  • List of Countries
  • For 7 days
  • Water Temperature
  • Weather Map
  • Weather Widgets
  • user-avatar
    Login

    Hourly Weather Carpentras

    Today, 14 November, Thursday

    Time Temperature Precipitation Wind Pressure Humidity
    00:00 +5°C° 0 mm 1 mps 746 mmHg 72%
    01:00 +5°C° 0 mm 1 mps 745 mmHg 70%
    02:00 +5°C° 0 mm 1 mps 745 mmHg 68%
    03:00 +4°C° 0 mm 2 mps 744 mmHg 66%
    04:00 +5°C° 0 mm 2 mps 744 mmHg 65%
    05:00 +5°C° 0 mm 3 mps 744 mmHg 63%
    06:00 +5°C° 0 mm 3 mps 744 mmHg 62%
    07:00 +6°C° 0.6 mm 4 mps 743 mmHg 68%
    08:00 +7°C° 0.6 mm 5 mps 743 mmHg 74%
    09:00 +6°C° 0.6 mm 7 mps 742 mmHg 80%
    10:00 +6°C° 7.5 mm 7 mps 742 mmHg 85%
    11:00 +7°C° 7.5 mm 6 mps 741 mmHg 89%
    12:00 +7°C° 7.5 mm 6 mps 741 mmHg 93%
    13:00 +6°C° 8.2 mm 7 mps 740 mmHg 93%
    14:00 +5°C° 8.2 mm 8 mps 739 mmHg 93%
    15:00 +3°C° 8.2 mm 9 mps 739 mmHg 93%
    16:00 +4°C° 4.8 mm 7 mps 738 mmHg 94%
    17:00 +3°C° 4.8 mm 6 mps 738 mmHg 95%
    18:00 +4°C° 4.8 mm 4 mps 738 mmHg 97%
    19:00 +4°C° 1.5 mm 4 mps 738 mmHg 96%
    20:00 +4°C° 1.5 mm 3 mps 738 mmHg 95%
    21:00 +5°C° 1.5 mm 3 mps 738 mmHg 95%
    22:00 +5°C° 0.3 mm 2 mps 739 mmHg 95%
    23:00 +5°C° 0.3 mm 2 mps 739 mmHg 95%

    Tomorrow, 15 November, Friday

    Time Temperature Precipitation Wind Pressure Humidity
    00:00 +5°C° 0.3 mm 2 mps 739 mmHg 96%
    01:00 +5°C° 0 mm 2 mps 740 mmHg 95%
    02:00 +5°C° 0 mm 2 mps 740 mmHg 95%
    03:00 +5°C° 0 mm 2 mps 741 mmHg 94%
    04:00 +5°C° 0 mm 1 mps 741 mmHg 94%
    05:00 +5°C° 0 mm 1 mps 742 mmHg 93%
    06:00 +5°C° 0 mm 1 mps 742 mmHg 93%
    07:00 +5°C° 0 mm 1 mps 742 mmHg 91%
    08:00 +6°C° 0 mm 1 mps 742 mmHg 89%
    09:00 +7°C° 0 mm 1 mps 742 mmHg 87%
    10:00 +7°C° 0 mm 2 mps 742 mmHg 86%
    11:00 +7°C° 0 mm 2 mps 742 mmHg 84%
    12:00 +8°C° 0 mm 2 mps 741 mmHg 83%
    13:00 +7°C° 0.2 mm 2 mps 741 mmHg 85%
    14:00 +7°C° 0.2 mm 3 mps 741 mmHg 88%
    15:00 +5°C° 0.2 mm 3 mps 741 mmHg 91%
    16:00 +5°C° 0.3 mm 3 mps 741 mmHg 91%
    17:00 +4°C° 0.3 mm 4 mps 742 mmHg 90%
    18:00 +4°C° 0.3 mm 4 mps 742 mmHg 90%
    19:00 +4°C° 0.1 mm 4 mps 742 mmHg 89%
    20:00 +3°C° 0.1 mm 5 mps 743 mmHg 88%
    21:00 +2°C° 0.1 mm 5 mps 743 mmHg 87%
    22:00 +3°C° 2 mm 4 mps 744 mmHg 90%
    23:00 +3°C° 2 mm 3 mps 744 mmHg 92%

    Day after tomorrow, 16 November, Saturday

    Time Temperature Precipitation Wind Pressure Humidity
    00:00 +3°C° 2 mm 3 mps 745 mmHg 95%
    01:00 +4°C° 0.7 mm 2 mps 746 mmHg 95%
    02:00 +4°C° 0.7 mm 2 mps 746 mmHg 95%
    03:00 +4°C° 0.7 mm 2 mps 747 mmHg 95%
    04:00 +4°C° 0.1 mm 2 mps 747 mmHg 95%
    05:00 +4°C° 0.1 mm 2 mps 748 mmHg 95%
    06:00 +5°C° 0.1 mm 1 mps 749 mmHg 95%
    07:00 +5°C° 0 mm 2 mps 749 mmHg 93%
    08:00 +5°C° 0 mm 2 mps 750 mmHg 92%
    09:00 +6°C° 0 mm 2 mps 750 mmHg 90%
    10:00 +7°C° 0 mm 2 mps 750 mmHg 87%
    11:00 +7°C° 0 mm 2 mps 750 mmHg 83%
    12:00 +8°C° 0 mm 2 mps 750 mmHg 80%
    13:00 +8°C° 0 mm 2 mps 750 mmHg 82%
    14:00 +7°C° 0 mm 3 mps 750 mmHg 85%
    15:00 +7°C° 0 mm 3 mps 749 mmHg 87%
    16:00 +5°C° 0 mm 3 mps 749 mmHg 87%
    17:00 +4°C° 0 mm 3 mps 750 mmHg 87%
    18:00 +3°C° 0 mm 3 mps 750 mmHg 86%
    19:00 +2°C° 0 mm 3 mps 750 mmHg 86%
    20:00 +2°C° 0 mm 3 mps 749 mmHg 85%
    21:00 +1°C° 0 mm 4 mps 749 mmHg 84%
    22:00 +1°C° 0 mm 4 mps 749 mmHg 84%
    23:00 +1°C° 0 mm 4 mps 748 mmHg 83%

    17 November, Sunday

    Time Temperature Precipitation Wind Pressure Humidity
    00:00 +1°C° 0 mm 5 mps 748 mmHg 82%
    01:00 +1°C° 0 mm 5 mps 747 mmHg 83%
    02:00 +1°C° 0 mm 6 mps 746 mmHg 84%
    03:00 +2°C° 0 mm 6 mps 745 mmHg 85%
    04:00 +2°C° 0 mm 6 mps 744 mmHg 84%
    05:00 +2°C° 0 mm 6 mps 744 mmHg 84%
    06:00 +2°C° 0 mm 7 mps 743 mmHg 84%
    07:00 +2°C° 0.2 mm 7 mps 744 mmHg 84%
    08:00 +3°C° 0.2 mm 7 mps 744 mmHg 84%
    09:00 +3°C° 0.2 mm 7 mps 744 mmHg 84%
    10:00 +4°C° 0 mm 6 mps 744 mmHg 82%
    11:00 +4°C° 0 mm 6 mps 744 mmHg 80%
    12:00 +5°C° 0 mm 6 mps 744 mmHg 79%
    13:00 +4°C° 0 mm 6 mps 744 mmHg 79%
    14:00 +4°C° 0 mm 6 mps 744 mmHg 80%
    15:00 +4°C° 0 mm 6 mps 744 mmHg 81%
    16:00 +3°C° 0 mm 5 mps 744 mmHg 83%
    17:00 +2°C° 0 mm 5 mps 745 mmHg 85%
    18:00 +2°C° 0 mm 5 mps 745 mmHg 87%
    19:00 +1°C° 0 mm 5 mps 745 mmHg 87%
    20:00 +1°C° 0 mm 5 mps 745 mmHg 88%
    21:00 +1°C° 0 mm 4 mps 746 mmHg 88%
    22:00 +1°C° 0 mm 4 mps 746 mmHg 89%
    23:00 +1°C° 0 mm 4 mps 746 mmHg 90%

    18 November, Monday

    Time Temperature Precipitation Wind Pressure Humidity
    00:00 +2°C° 0 mm 3 mps 746 mmHg 91%
    01:00 +2°C° 0 mm 3 mps 746 mmHg 91%
    02:00 +2°C° 0 mm 3 mps 746 mmHg 91%
    03:00 +2°C° 0 mm 3 mps 746 mmHg 92%
    04:00 +1°C° 0 mm 3 mps 747 mmHg 92%
    05:00 +1°C° 0 mm 3 mps 747 mmHg 91%
    06:00 +1°C° 0 mm 3 mps 747 mmHg 91%
    07:00 +2°C° 0 mm 3 mps 747 mmHg 88%
    08:00 +3°C° 0 mm 3 mps 748 mmHg 85%
    09:00 +4°C° 0 mm 3 mps 748 mmHg 82%
    10:00 +5°C° 0 mm 4 mps 748 mmHg 80%
    11:00 +6°C° 0 mm 4 mps 748 mmHg 77%
    12:00 +7°C° 0 mm 5 mps 748 mmHg 75%
    13:00 +6°C° 0 mm 5 mps 748 mmHg 77%
    14:00 +6°C° 0 mm 4 mps 749 mmHg 78%
    15:00 +6°C° 0 mm 4 mps 749 mmHg 80%
    16:00 +5°C° 0 mm 4 mps 749 mmHg 83%
    17:00 +3°C° 0 mm 4 mps 750 mmHg 87%
    18:00 +2°C° 0 mm 3 mps 750 mmHg 90%
    19:00 +2°C° 0 mm 3 mps 751 mmHg 90%
    20:00 +2°C° 0 mm 3 mps 751 mmHg 89%
    21:00 +2°C° 0 mm 3 mps 751 mmHg 89%
    22:00 +1°C° 0 mm 3 mps 752 mmHg 88%
    23:00 +1°C° 0 mm 3 mps 752 mmHg 87%

    19 November, Tuesday

    Time Temperature Precipitation Wind Pressure Humidity
    00:00 +2°C° 0 mm 2 mps 752 mmHg 87%
    01:00 +2°C° 0 mm 2 mps 752 mmHg 86%
    02:00 +2°C° 0 mm 2 mps 752 mmHg 86%
    03:00 +2°C° 0 mm 2 mps 752 mmHg 85%
    04:00 +2°C° 0 mm 2 mps 753 mmHg 85%
    05:00 +2°C° 0 mm 2 mps 753 mmHg 85%
    06:00 +2°C° 0 mm 2 mps 753 mmHg 84%
    07:00 +3°C° 0 mm 2 mps 753 mmHg 81%
    08:00 +5°C° 0 mm 1 mps 753 mmHg 77%
    09:00 +6°C° 0 mm 1 mps 753 mmHg 74%
    10:00 +8°C° 0 mm 1 mps 753 mmHg 72%
    11:00 +9°C° 0 mm 1 mps 753 mmHg 69%
    12:00 +10°C° 0 mm 1 mps 752 mmHg 67%
    13:00 +10°C° 0 mm 1 mps 752 mmHg 70%
    14:00 +10°C° 0 mm 1 mps 752 mmHg 74%
    15:00 +8°C° 0 mm 0 mps 752 mmHg 77%
    16:00 +8°C° 0 mm 1 mps 752 mmHg 78%
    17:00 +7°C° 0 mm 1 mps 753 mmHg 79%
    18:00 +6°C° 0 mm 1 mps 753 mmHg 80%
    19:00 +6°C° 0 mm 1 mps 753 mmHg 80%
    20:00 +6°C° 0 mm 1 mps 753 mmHg 79%
    21:00 +5°C° 0 mm 2 mps 753 mmHg 79%
    22:00 +6°C° 0 mm 2 mps 753 mmHg 77%
    23:00 +5°C° 0 mm 3 mps 753 mmHg 75%
    Show more